Regional Weather Roundup
Issued by NWS

Home | Current Version | Previous Version | Text Only | Print | Product List | Glossary Off
Versions: 1 2 3 4 5 6 7 8 9 10 11 12 13 14 15 16 17 18 19 20 21 22 23 24 25 26 27 28 29 30 31 32 33 34 35 36 37 38 39 40 41 42 43 44 45 46 47 48 49 50

000
ASUS43 KOAX 140310
RWRNE

WEATHER ROUNDUP FOR NEBRASKA
NATIONAL WEATHER SERVICE OMAHA NE
1000 PM CDT SUN JUL 13 2014

NOTES: SATELLITE DATA IS BEING USED TO AUGMENT CLOUD COVER ABOVE
       12000 FEET.
       "FAIR" INDICATES FEW OR NO CLOUDS BELOW 12,000 FEET WITH NO
       SIGNIFICANT WEATHER AND/OR OBSTRUCTIONS TO VISIBILITY.

  * THESE STATIONS DO NOT REPORT WEATHER SUCH AS RAIN...SNOW OR FOG.

NEZ001>004-019>022-054>056-140400-
NEBRASKA PANHANDLE

CITY           SKY/WX    TMP DP  RH WIND       PRES   REMARKS
SCOTTSBLUFF    CLEAR     76  62  62 S5        30.14S
ALLIANCE       CLEAR     69  59  70 NE9       30.15R
CHADRON        CLEAR     72  57  59 E7        30.13R
KIMBALL        CLEAR     68  61  79 SW6       30.21S
SIDNEY         CLEAR     64  59  83 SW6       30.19S
$$

NEZ057>060-069>072-079>082-140400-
SOUTHWEST NEBRASKA

CITY           SKY/WX    TMP DP  RH WIND       PRES   REMARKS
NORTH PLATTE   CLEAR     69  61  75 SE7       30.07S
IMPERIAL       PTCLDY    68  62  81 SW6       30.13F
LEXINGTON      CLEAR     78  65  63 SE3       30.07R
MCCOOK         MOCLDY    74  63  68 W7        30.10R
OGALLALA       CLEAR     69  63  79 SW5       30.11S
$$

NEZ005>010-023>029-035>040-094-140400-
NORTH CENTRAL NEBRASKA

CITY           SKY/WX    TMP DP  RH WIND       PRES   REMARKS
VALENTINE      PTCLDY    73  58  59 NE6       30.09R
AINSWORTH      PTCLDY    71  58  63 N6        30.08S
BROKEN BOW     CLEAR     69  65  86 CALM      30.07R
O`NEILL        PTCLDY    71  59  66 N7        30.05R
ORD            CLEAR     70  63  78 SW3       30.03R
THEDFORD       MOCLDY    74  57  53 CALM      30.10R
$$

NEZ041-046>049-061>064-073>077-083>087-140400-
SOUTH CENTRAL NEBRASKA

CITY           SKY/WX    TMP DP  RH WIND       PRES   REMARKS
GRAND ISLAND   CLEAR     74  67  78 CALM      30.04S
AURORA         CLEAR     73  68  86 CALM      30.03S
HASTINGS       CLEAR     77  63  61 CALM      30.05R
HEBRON         CLEAR     76  70  81 CALM      30.03R
HOLDREGE       PTCLDY    75  62  64 CALM      30.07R
KEARNEY *      CLEAR     75  63  64 E6        30.06R
YORK           CLEAR     73  68  83 CALM      30.03R
$$

NEZ011>018-030>034-042>045-140400-
NORTHEAST NEBRASKA

CITY           SKY/WX    TMP DP  RH WIND       PRES   REMARKS
NORFOLK        PTCLDY    73  64  73 CALM      30.00R
ALBION         CLEAR     70  64  82 CALM      30.02S
BLAIR          CLEAR     76  59  56 CALM      29.99R
FREMONT        CLEAR     76  69  77 CALM      29.99S
TEKAMAH        CLEAR     71  67  87 SW6       29.97S
WAYNE          CLEAR     71  66  85 CALM      30.00R
$$

NEZ050>053-065>068-078-088>093-140400-
SOUTHEAST NEBRASKA

CITY           SKY/WX    TMP DP  RH WIND       PRES   REMARKS
LINCOLN        CLEAR     78  69  73 NW3       30.00S
OMAHA EPPLEY   PTCLDY    77  70  79 CALM      29.98R
BEATRICE       PTCLDY    71  68  90 CALM      30.00S
FALLS CITY     LGT RAIN  74  70  87 SW9       29.98R FOG
NEBRASKA CITY  CLEAR     74  68  82 CALM      29.99S
PLATTSMOUTH    CLEAR     75  67  77 CALM      29.99S
$$

NEZ044-045-051>053-067-140400-
OMAHA AREA

CITY           SKY/WX    TMP DP  RH WIND       PRES   REMARKS
OMAHA EPPLEY   PTCLDY    77  70  79 CALM      29.98R
BLAIR          CLEAR     76  59  56 CALM      29.99R
FREMONT        CLEAR     76  69  77 CALM      29.99S
MILLARD        CLEAR     75  69  84 CALM      29.98S
OFFUTT AFB     CLEAR     72  72  99 W1        29.98R
PLATTSMOUTH    CLEAR     75  67  77 CALM      29.99S
WAHOO          FAIR      74  68  79 W5        29.99S
$$



USA.gov is the U.S. government's official web portal to all federal, state and local government web resources and services.